Location: ????????
(54.9045°N, 39.1041°E)
Time: 10:26:47
(UTC+00:00)

NOSS 7 (E) - Pass Details

Date: 14 April 2024
Orbit: 389 x 1684 km, 63.3° (Epoch: 21 May)

Event Time Altitude Azimuth Distance (km) Brightness Sun altitude
Rises 00:28:03 0° 308° (NW) 2,300 7.9 -15.0°
Reaches altitude 10° 00:30:02 10° 303° (WNW) 1,436 6.8 -14.8°
Maximum altitude 00:33:02 54° 225° (SW) 505 4.2 -14.4°
Drops below altitude 10° 00:36:22 10° 147° (SSE) 1,600 7.1 -14.1°
Sets 00:38:42 0° 143° (SE) 2,604 8.2 -13.8°
